Home > Weather > Charleston > Past weeks

Flag for USA Past Weather in Charleston, South Carolina, USA — Yesterday and Last 2 Weeks

Now
83 °F

Broken clouds.


Feels Like: 87 °F
Forecast: 69 / 83 °F
Wind: 9 mph from North

Location: Charleston Air Force Base Reporting Station

Current Time: May 31, 2016 at 2:13:12 PM

Latest Report: May 31, 2016 at 12:56 PM


Visibility: 10 mi

Pressure: 29.92 "Hg

Humidity: 65%

Dew Point: 70 °F

Location of CharlestonLocation

Past Weather in Charleston — Graph

°F

Charleston Temperature Yesterday

Maximum temperature yesterday: 77 °F (at 1:56 PM)
Minimum temperature yesterday: 71 °F (at 12:56 AM)
Average temperature yesterday: 73 °F

High & Low Weather Summary for the Past Weeks

 TemperatureHumidityPressure
High89 °F (May 25, 1:56 PM)94% (May 29, 7:56 AM)30.25 "Hg (May 29, 7:56 AM)
Low57 °F (May 23, 5:56 AM)30% (May 25, 1:56 PM)29.79 "Hg (May 29, 8:56 AM)
Average73 °F74%30.02 "Hg
* Reported May 16 11:56 AM — May 31 11:56 AM, Charleston, Weather by CustomWeather, © 2016

Note: Actual official high and low records may vary slightly from our data, if they occured in-between our weather recording intervals... More about our weather records

Advertising

Charleston Weather History for the Previous 24 Hours

Scroll right to see more
 ConditionsComfort  
Time TempWeatherWind HumidityBarometerVisibility
11:56 AM
Tue, May 31
80 °FBroken clouds.9 mph71%29.93 "Hg10 mi
10:58 AM80 °FBroken clouds.10 mph69%29.95 "Hg10 mi
9:56 AM77 °FBroken clouds.8 mph79%29.94 "Hg10 mi
8:56 AM75 °FBroken clouds.7 mph85%29.93 "Hg10 mi
7:56 AM73 °FPartly sunny.7 mph90%29.92 "Hg10 mi
7:02 AM71 °FPassing clouds.No wind93%29.90 "Hg10 mi
5:56 AM71 °FPassing clouds.6 mph90%29.87 "Hg8 mi
4:56 AM71 °FPassing clouds.6 mph93%29.86 "Hg10 mi
3:56 AM71 °FMostly cloudy.6 mph93%29.86 "Hg10 mi
2:56 AM71 °FMostly cloudy.6 mph93%29.87 "Hg10 mi
1:56 AM72 °FMostly cloudy.5 mph93%29.88 "Hg10 mi
12:56 AM72 °FMostly cloudy.7 mph91%29.88 "Hg10 mi
11:56 PM
Mon, May 30
72 °FLight rain. Mostly cloudy.7 mph93%29.89 "Hg8 mi
10:56 PM72 °FMostly cloudy.5 mph93%29.90 "Hg8 mi
9:56 PM73 °FLight rain. Mostly cloudy.10 mph90%29.89 "Hg10 mi
8:56 PM72 °FLight rain. Partly sunny.10 mph93%29.87 "Hg10 mi
7:56 PM73 °FPartly sunny.8 mph90%29.87 "Hg10 mi
6:56 PM74 °FPartly sunny.7 mph91%29.86 "Hg10 mi
5:56 PM76 °FBroken clouds.7 mph85%29.85 "Hg10 mi
4:56 PM76 °FPartly sunny.9 mph82%29.86 "Hg10 mi
3:56 PM75 °FMostly cloudy.9 mph85%29.87 "Hg10 mi
2:56 PM73 °FLight rain. Fog.9 mph90%29.89 "Hg5 mi
Weather by CustomWeather, © 2016

See weather overviewHow to use our weather pages